#timestamp,LO_Frequency,Hit 
1500976815.4,286046996.4,N
1500976835.2,286046996.3,N
1500976855.1,286046992.2,N
1500976856.0,286046992.2,N
1500976875.8,286046994.8,N
1500976895.6,286046997.4,N
1500976915.5,286046998.8,N
1500976935.3,286047000.5,N
1500976955.1,286047002.5,N
1500976975.9,286047007.4,N
1500976995.7,286047005.3,N
1500977015.5,286047012.3,Y
1500977035.4,286047005.2,N
1500977055.2,286047002.8,N
1500977075.0,286047002.6,N
1500977075.9,286047002.6,N
1500977095.8,286047001.3,N
1500977115.2,286047003.2,N
1500977135.9,286047003.0,N
1500977155.7,286047001.0,N
1500977175.6,286047000.9,N
1500977195.4,286046996.6,N
1500977215.2,286046998.2,N
1500977235.1,286047001.0,N
1500977236.0,286047001.0,N
1500977255.4,286047005.0,N
1500977275.2,286047001.3,N
1500977295.1,286047000.8,N
1500977315.7,286047001.6,N
1500977335.5,286047001.7,N
1500977355.3,286047000.4,N
1500977375.2,286047007.1,N
1500977395.9,286047005.9,N
1500977415.7,286047005.3,N
1500977435.6,286047003.4,N
1500977455.4,286047003.8,N
1500977475.2,286047005.4,N
1500977495.1,286047003.4,N
1500977515.1,286047005.2,N
1500977535.9,286047002.1,N
1500977555.7,286047003.4,N
1500977575.5,286047001.1,N
1500977595.3,286046998.2,N
1500977615.2,286046998.8,N
1500977635.0,286046998.1,N
1500977635.9,286046998.1,N
1500977655.7,286047003.5,N
1500977675.6,286047005.4,N
1500977695.4,286047004.7,N
1500977715.2,286047001.5,N
1500977735.1,286047001.8,N
1500977736.0,286047001.8,N
1500977755.8,286047007.8,N
1500977775.6,286047006.5,N
1500977795.5,286047007.6,N
1500977815.3,286047006.6,N
1500977835.1,286047005.3,N
1500977855.9,286047005.6,N
1500977875.7,286047001.4,N
1500977895.9,286047001.5,N
1500977915.7,286047001.6,N
1500977935.6,286047003.9,N
1500977955.4,286047007.0,N
1500977975.2,286047003.8,N
1500977995.0,286047001.6,N
1500977996.0,286047001.6,N
1500978015.8,286047003.9,N
1500978035.6,286047003.2,N
1500978055.4,286047005.9,N
1500978075.3,286046999.9,N
1500978095.1,286047003.8,N
1500978115.8,286047004.8,N
1500978135.7,286047007.3,N
1500978155.5,286047003.2,N
1500978175.3,286047006.0,N
1500978195.2,286047003.0,N
1500978215.0,286046998.4,N
1500978216.0,286046998.4,N
1500978235.8,286047001.1,N
1500978255.6,286047001.8,N
1500978275.4,286047005.6,N
1500978295.3,286047002.0,N
1500978315.1,286047005.5,N
1500978335.8,286047001.7,N
1500978355.7,286047004.3,N
1500978375.5,286047003.3,N
1500978395.3,286047005.4,N
1500978415.2,286047005.1,N
1500978435.9,286047004.1,N
1500978455.7,286047007.5,N
1500978475.6,286047005.4,N
1500978495.4,286047007.3,N
1500978515.2,286047003.1,N
1500978535.1,286047003.5,N
1500978536.0,286047003.5,N
1500978555.8,286047004.0,N
1500978575.6,286047007.0,N
1500978595.4,286047002.0,N
1500978615.3,286047001.9,N
1500978635.1,286047001.1,N
1500978655.8,286047000.1,N
1500978675.7,286047000.7,N
1500978695.5,286047003.7,N
1500978715.3,286047005.1,N
1500978735.2,286047001.3,N
1500978755.9,286047001.2,N
1500978775.7,286047005.7,N
1500978795.6,286047005.4,N
1500978815.4,286047003.5,N
1500978835.2,286047004.0,N
1500978855.1,286047005.6,N
1500978856.0,286047005.6,N
1500978875.8,286047002.8,N
1500978895.1,286047002.1,N
1500978915.9,286047000.4,N
1500978935.7,286047001.7,N
1500978955.5,286047002.8,N
1500978975.4,286046999.7,N
1500978995.2,286047001.3,N
1500979015.0,286047001.9,N
1500979015.9,286047001.9,N
1500979035.8,286047000.1,N
1500979055.6,286046999.1,N
1500979075.4,286047004.2,N
1500979095.3,286047001.7,N
1500979115.1,286047003.9,N
1500979116.0,286047003.9,N
1500979135.8,286047001.5,N
1500979155.7,286046999.9,N
1500979175.5,286046997.6,N
1500979195.3,286046996.5,N
1500979215.2,286046995.5,N
1500979235.9,286046991.9,N
1500979255.7,286046992.2,N
1500979275.5,286046997.9,N
1500979295.4,286046998.8,N
1500979315.2,286047000.2,N
1500979335.0,286046999.2,N
1500979335.9,286046999.2,N
1500979355.8,286046998.1,N
1500979375.6,286046996.8,N
1500979395.4,286046998.3,N
1500979415.3,286047002.5,N
1500979435.1,286047003.2,N
1500979455.8,286047002.8,N
1500979475.7,286046999.6,N
1500979495.5,286047000.8,N
1500979515.3,286047000.5,N
1500979535.2,286046999.1,N
1500979555.9,286046995.0,N
1500979575.7,286046995.3,N
1500979595.6,286046997.2,N
1500979615.4,286047000.4,N
1500979635.2,286047002.8,N
1500979655.0,286047002.3,N
1500979656.0,286047002.3,N
1500979675.8,286047001.5,N
1500979695.6,286047006.3,N
1500979715.5,286047003.1,N
1500979735.3,286047003.2,N
1500979755.1,286047003.8,N
1500979775.8,286047002.1,N
1500979795.7,286047004.9,N
1500979815.5,286047004.3,N
1500979835.3,286047001.9,N
1500979855.2,286047002.7,N
1500979875.9,286046998.2,N
1500979895.7,286046998.5,N
1500979915.6,286046996.8,N
1500979935.4,286046996.6,N
1500979955.2,286046998.1,N
1500979975.1,286046999.8,N
1500979976.0,286046999.8,N
1500979995.8,286046999.7,N
1500980015.6,286047001.7,N
1500980035.4,286047002.7,N
1500980055.3,286047003.2,N
1500980075.1,286047002.0,N
1500980095.8,286047005.7,N
1500980115.7,286047003.6,N
1500980135.5,286046998.7,N
1500980155.3,286047001.9,N
1500980175.2,286047000.4,N
1500980195.9,286047002.8,N
1500980215.7,286047002.2,N
1500980235.6,286046998.1,N
1500980255.4,286047002.8,N
1500980275.2,286047000.0,N
1500980295.1,286046999.7,N
1500980296.0,286046999.7,N
1500980315.8,286047003.9,N
1500980335.6,286047003.4,N
1500980355.5,286047003.8,N
1500980375.3,286047003.3,N
1500980395.1,286047004.7,N
